When you browse on this site, cookies collect data to enhance your experience and personalize the content and advertising you see.
Visit our Privacy Policy to learn more. By continuing to use the site, you agree to this use of cookies and data.
  • Em Portugal
  • Lista de países
  • Para 7 dias
  • Temperatura da água
  • Mapa do tempo
  • Widgets de tempo
  • user-avatar
    Iniciar Sessão

    Previsão horária em Veleshino 1

    Hoje, 18 Setembro, Quarta-feira

    Tempo Temperatura Precipitação Vento Pressão Humidade
    00:00 +7°C° 0.1 mm 4 m/s 731 mmHg 90%
    01:00 +6°C° 0.1 mm 4 m/s 731 mmHg 90%
    02:00 +7°C° 0 mm 3 m/s 730 mmHg 92%
    03:00 +6°C° 0.8 mm 4 m/s 730 mmHg 92%
    04:00 +6°C° 0.8 mm 5 m/s 730 mmHg 91%
    05:00 +5°C° 0.8 mm 5 m/s 730 mmHg 91%
    06:00 +4°C° 0.3 mm 6 m/s 730 mmHg 89%
    07:00 +4°C° 0.3 mm 6 m/s 731 mmHg 88%
    08:00 +4°C° 0.3 mm 6 m/s 731 mmHg 87%
    09:00 +5°C° 0 mm 6 m/s 732 mmHg 84%
    10:00 +5°C° 0 mm 6 m/s 732 mmHg 80%
    11:00 +7°C° 0 mm 6 m/s 733 mmHg 77%
    12:00 +7°C° 0.1 mm 6 m/s 733 mmHg 78%
    13:00 +7°C° 0.1 mm 6 m/s 734 mmHg 78%
    14:00 +6°C° 0.1 mm 7 m/s 734 mmHg 79%
    15:00 +8°C° 0.1 mm 6 m/s 735 mmHg 78%
    16:00 +8°C° 0.1 mm 6 m/s 735 mmHg 76%
    17:00 +9°C° 0.1 mm 5 m/s 736 mmHg 74%
    18:00 +8°C° 0 mm 5 m/s 737 mmHg 79%
    19:00 +7°C° 0 mm 5 m/s 737 mmHg 83%
    20:00 +6°C° 0 mm 5 m/s 737 mmHg 87%
    21:00 +6°C° 0 mm 5 m/s 738 mmHg 89%
    22:00 +6°C° 0 mm 5 m/s 738 mmHg 92%
    23:00 +6°C° 0 mm 5 m/s 738 mmHg 94%

    Amanhã, 19 Setembro, Quinta-feira

    Tempo Temperatura Precipitação Vento Pressão Humidade
    00:00 +6°C° 0 mm 5 m/s 739 mmHg 94%
    01:00 +5°C° 0 mm 5 m/s 739 mmHg 95%
    02:00 +5°C° 0 mm 4 m/s 739 mmHg 96%
    03:00 +6°C° 0 mm 5 m/s 740 mmHg 95%
    04:00 +6°C° 0 mm 5 m/s 740 mmHg 94%
    05:00 +6°C° 0 mm 5 m/s 740 mmHg 92%
    06:00 +6°C° 0.3 mm 5 m/s 741 mmHg 92%
    07:00 +6°C° 0.3 mm 5 m/s 741 mmHg 91%
    08:00 +6°C° 0.3 mm 5 m/s 741 mmHg 90%
    09:00 +7°C° 0.1 mm 5 m/s 742 mmHg 89%
    10:00 +7°C° 0.1 mm 5 m/s 742 mmHg 87%
    11:00 +7°C° 0.1 mm 4 m/s 743 mmHg 85%
    12:00 +8°C° 0 mm 4 m/s 743 mmHg 80%
    13:00 +10°C° 0 mm 4 m/s 743 mmHg 75%
    14:00 +11°C° 0 mm 4 m/s 743 mmHg 70%
    15:00 +11°C° 0 mm 4 m/s 743 mmHg 70%
    16:00 +11°C° 0 mm 3 m/s 743 mmHg 69%
    17:00 +11°C° 0 mm 3 m/s 743 mmHg 69%
    18:00 +10°C° 0.1 mm 3 m/s 743 mmHg 75%
    19:00 +8°C° 0.1 mm 3 m/s 743 mmHg 81%
    20:00 +7°C° 0.1 mm 3 m/s 743 mmHg 87%
    21:00 +7°C° 0 mm 3 m/s 743 mmHg 88%
    22:00 +7°C° 0 mm 3 m/s 743 mmHg 89%
    23:00 +5°C° 0 mm 3 m/s 743 mmHg 90%

    Depois de amanhã, 20 Setembro, Sexta-feira

    Tempo Temperatura Precipitação Vento Pressão Humidade
    00:00 +5°C° 0.1 mm 4 m/s 743 mmHg 91%
    01:00 +5°C° 0.1 mm 4 m/s 743 mmHg 93%
    02:00 +5°C° 0.1 mm 4 m/s 743 mmHg 95%
    03:00 +5°C° 0 mm 4 m/s 743 mmHg 95%
    04:00 +3°C° 0 mm 5 m/s 743 mmHg 95%
    05:00 +3°C° 0 mm 5 m/s 743 mmHg 95%
    06:00 +3°C° 0 mm 5 m/s 744 mmHg 91%
    07:00 +4°C° 0 mm 6 m/s 744 mmHg 87%
    08:00 +4°C° 0 mm 6 m/s 744 mmHg 83%
    09:00 +5°C° 0 mm 6 m/s 745 mmHg 76%
    10:00 +7°C° 0 mm 6 m/s 745 mmHg 68%
    11:00 +8°C° 0 mm 6 m/s 745 mmHg 61%
    12:00 +9°C° 0.1 mm 6 m/s 745 mmHg 57%
    13:00 +9°C° 0.1 mm 7 m/s 745 mmHg 53%
    14:00 +10°C° 0.1 mm 7 m/s 746 mmHg 50%
    15:00 +9°C° 0 mm 6 m/s 746 mmHg 53%
    16:00 +9°C° 0 mm 5 m/s 746 mmHg 57%
    17:00 +8°C° 0 mm 4 m/s 746 mmHg 60%
    18:00 +7°C° 0 mm 4 m/s 746 mmHg 66%
    19:00 +5°C° 0 mm 3 m/s 746 mmHg 72%
    20:00 +4°C° 0 mm 3 m/s 747 mmHg 78%
    21:00 +3°C° 0 mm 3 m/s 747 mmHg 81%
    22:00 +4°C° 0 mm 2 m/s 747 mmHg 83%
    23:00 +3°C° 0 mm 2 m/s 747 mmHg 85%

    21 Setembro, Sábado

    Tempo Temperatura Precipitação Vento Pressão Humidade
    00:00 +3°C° 0 mm 2 m/s 747 mmHg 86%
    01:00 +3°C° 0 mm 2 m/s 748 mmHg 86%
    02:00 +3°C° 0 mm 2 m/s 748 mmHg 87%
    03:00 +3°C° 0 mm 2 m/s 748 mmHg 87%
    04:00 +3°C° 0 mm 2 m/s 747 mmHg 87%
    05:00 +3°C° 0 mm 2 m/s 747 mmHg 86%
    06:00 +3°C° 0 mm 3 m/s 747 mmHg 82%
    07:00 +4°C° 0 mm 3 m/s 747 mmHg 78%
    08:00 +5°C° 0 mm 3 m/s 747 mmHg 73%
    09:00 +6°C° 0 mm 4 m/s 747 mmHg 73%
    10:00 +6°C° 0 mm 5 m/s 747 mmHg 74%
    11:00 +7°C° 0 mm 5 m/s 746 mmHg 74%
    12:00 +7°C° 0.2 mm 5 m/s 746 mmHg 78%
    13:00 +8°C° 0.2 mm 6 m/s 746 mmHg 83%
    14:00 +8°C° 0.2 mm 6 m/s 745 mmHg 87%
    15:00 +9°C° 0 mm 5 m/s 745 mmHg 86%
    16:00 +10°C° 0 mm 5 m/s 745 mmHg 84%
    17:00 +12°C° 0 mm 5 m/s 744 mmHg 83%
    18:00 +12°C° 0 mm 4 m/s 744 mmHg 84%
    19:00 +12°C° 0 mm 4 m/s 744 mmHg 85%
    20:00 +11°C° 0 mm 4 m/s 744 mmHg 87%
    21:00 +11°C° 0 mm 4 m/s 744 mmHg 89%
    22:00 +10°C° 0 mm 4 m/s 744 mmHg 91%
    23:00 +10°C° 0 mm 4 m/s 744 mmHg 93%

    22 Setembro, Domingo

    Tempo Temperatura Precipitação Vento Pressão Humidade
    00:00 +9°C° 0 mm 5 m/s 744 mmHg 93%
    01:00 +9°C° 0 mm 5 m/s 744 mmHg 93%
    02:00 +9°C° 0 mm 5 m/s 744 mmHg 94%
    03:00 +9°C° 0 mm 6 m/s 744 mmHg 92%
    04:00 +9°C° 0 mm 6 m/s 744 mmHg 91%
    05:00 +9°C° 0 mm 6 m/s 744 mmHg 89%
    06:00 +9°C° 0 mm 5 m/s 744 mmHg 89%
    07:00 +10°C° 0 mm 5 m/s 744 mmHg 88%
    08:00 +10°C° 0 mm 5 m/s 744 mmHg 87%
    09:00 +12°C° 0 mm 5 m/s 744 mmHg 81%
    10:00 +14°C° 0 mm 4 m/s 744 mmHg 76%
    11:00 +15°C° 0 mm 4 m/s 745 mmHg 71%
    12:00 +15°C° 0 mm 4 m/s 745 mmHg 69%
    13:00 +17°C° 0 mm 4 m/s 744 mmHg 67%
    14:00 +17°C° 0 mm 3 m/s 744 mmHg 65%
    15:00 +17°C° 0 mm 3 m/s 744 mmHg 67%
    16:00 +16°C° 0 mm 3 m/s 744 mmHg 69%
    17:00 +15°C° 0 mm 2 m/s 744 mmHg 71%
    18:00 +14°C° 0 mm 2 m/s 744 mmHg 71%
    19:00 +11°C° 0 mm 3 m/s 744 mmHg 70%
    20:00 +10°C° 0 mm 3 m/s 744 mmHg 70%
    21:00 +9°C° 0 mm 3 m/s 745 mmHg 64%
    22:00 +8°C° 0 mm 3 m/s 745 mmHg 59%
    23:00 +7°C° 0 mm 3 m/s 745 mmHg 54%

    23 Setembro, Segunda-feira

    Tempo Temperatura Precipitação Vento Pressão Humidade
    00:00 +7°C° 0 mm 3 m/s 745 mmHg 54%
    01:00 +6°C° 0 mm 4 m/s 745 mmHg 54%
    02:00 +6°C° 0 mm 4 m/s 745 mmHg 55%
    03:00 +6°C° 0 mm 4 m/s 744 mmHg 55%
    04:00 +6°C° 0 mm 4 m/s 744 mmHg 55%
    05:00 +6°C° 0 mm 4 m/s 744 mmHg 55%
    06:00 +6°C° 0 mm 4 m/s 744 mmHg 55%
    07:00 +7°C° 0 mm 4 m/s 744 mmHg 56%
    08:00 +7°C° 0 mm 4 m/s 743 mmHg 56%
    09:00 +7°C° 0 mm 4 m/s 743 mmHg 57%
    10:00 +7°C° 0 mm 5 m/s 743 mmHg 58%
    11:00 +8°C° 0 mm 5 m/s 743 mmHg 59%
    12:00 +9°C° 0 mm 5 m/s 743 mmHg 59%
    13:00 +10°C° 0 mm 5 m/s 742 mmHg 58%
    14:00 +12°C° 0 mm 5 m/s 742 mmHg 58%
    15:00 +10°C° 0 mm 5 m/s 742 mmHg 59%
    16:00 +11°C° 0 mm 4 m/s 742 mmHg 61%
    17:00 +11°C° 0 mm 4 m/s 741 mmHg 62%
    18:00 +8°C° 0 mm 4 m/s 741 mmHg 64%
    19:00 +7°C° 0 mm 4 m/s 741 mmHg 66%
    20:00 +6°C° 0 mm 4 m/s 741 mmHg 68%
    21:00 +5°C° 0 mm 4 m/s 741 mmHg 69%
    22:00 +5°C° 0 mm 4 m/s 741 mmHg 69%
    23:00 +4°C° 0 mm 4 m/s 741 mmHg 70%
    Mostrar mais